sat.trackr.live / text

‹ back to catalog

FALCONSAT-10

NORAD 58291 · 2023-174AM

PAYLOAD ACTIVE UNKNOWN

§ Identity

Operator
Country
US
Launch date
2023-11-11
Launch site
AFWTR
Launch vehicle
Mass (kg)
RCS (m²)

External: N2YO · Heavens-Above · Gunter

§ Orbital elements

Epoch: 2026-05-25T04:06:19.783584Z

Period
94.28 min
Inclination
97.3806°
Eccentricity
0.0006777
Mean motion
15.27436924 rev/d
Perigee alt
478.8 km
Apogee alt
488.1 km
Semi-major
6,861.6 km
B*
1.6875e-4
RAAN
221.4535°
Arg perigee
267.8240°
Mean anomaly
92.2224°
Rev number
14,125

§ Raw data

FALCONSAT-101 58291U 23174AM  26145.17106231  .00004459  00000+0  16875-3 0  99922 58291  97.3806 221.4535 0006777 267.8240  92.2224 15.27436924141255

JSON: /api/v1/satellites/58291 · /tle

For live sub-satellite position, see the globe view (requires WebGL).

§ Visibility from observer

Set your observer location to see the next 7 days of passes ≥ 10°. The values pass through the URL so the page stays shareable.

No JS? Fill the form by hand. The geolocation button needs JavaScript.

§ Radio — SatNOGS DB

ModeDescriptionDownlinkUplink
FM S-band telemetry 2.288 GHz

1 transmitter · refreshed weekly from db.satnogs.org